EWG6QP EDDR-LEPA

Flight info

Callsign EWG6QP
Flight time 1h 36m
Altitude 37000
Route GTQ1S GTQ A242 POGOL DCT MOROK DCT GILIR DCT GEVEA DCT INCUS DCT BALSI UN852 VATIR N852 VERSO L129 LUNIK
Aircraft A320/M-SDE3FGHIRWY/LB1

Departure

Time 2026-04-25 18:13
Airport Saarbrücken Airport (EDDR)

Arrival

Time 2026-04-25 19:50
Airport Palma de Mallorca Airport (LEPA)
Time Latitude Longitude Altitude Speed Heading
2026-04-25 16:27 49.21848 7.11350 1056 ft 0 kts 346°
2026-04-25 18:09 49.21859 7.11346 1055 ft 5 kts 346°
2026-04-25 18:09 49.21873 7.11345 1055 ft 6 kts
2026-04-25 18:10 49.21916 7.11437 1057 ft 12 kts 68°
2026-04-25 18:10 49.21893 7.11522 1058 ft 9 kts 144°
2026-04-25 18:10 49.21853 7.11645 1060 ft 14 kts 110°
2026-04-25 18:10 49.21820 7.11773 1062 ft 12 kts 111°
2026-04-25 18:11 49.21779 7.11866 1062 ft 19 kts 131°
2026-04-25 18:11 49.21695 7.12013 1064 ft 17 kts 131°
2026-04-25 18:11 49.21625 7.12134 1065 ft 14 kts 131°
2026-04-25 18:11 49.21549 7.12260 1066 ft 11 kts 143°
2026-04-25 18:12 49.21508 7.12327 1068 ft 7 kts 115°
2026-04-25 18:12 49.21496 7.12310 1066 ft 2 kts 262°
2026-04-25 18:12 49.21493 7.12260 1065 ft 20 kts 267°
2026-04-25 18:12 49.21474 7.11602 1061 ft 99 kts 267°
2026-04-25 18:13 49.21424 7.10231 1043 ft 156 kts 270°
2026-04-25 18:13 49.21395 7.08518 1619 ft 155 kts 271°
2026-04-25 18:13 49.21350 7.06920 2472 ft 153 kts 270°
2026-04-25 18:14 49.21231 7.03434 3197 ft 184 kts 270°
2026-04-25 18:14 49.21170 7.01354 3420 ft 208 kts 269°
2026-04-25 18:14 49.21087 6.99016 3694 ft 233 kts 265°
2026-04-25 18:14 49.20428 6.96639 4071 ft 260 kts 229°
2026-04-25 18:15 49.19014 6.94794 4763 ft 272 kts 218°
2026-04-25 18:15 49.17511 6.93066 5629 ft 276 kts 218°
2026-04-25 18:15 49.15959 6.91323 6508 ft 279 kts 217°
2026-04-25 18:15 49.14387 6.89561 7335 ft 282 kts 218°
2026-04-25 18:16 49.12791 6.87762 8018 ft 288 kts 218°
2026-04-25 18:16 49.11179 6.85934 8899 ft 289 kts 219°
2026-04-25 18:16 49.07917 6.82210 10496 ft 296 kts 219°
2026-04-25 18:17 49.06254 6.80306 11115 ft 306 kts 219°
2026-04-25 18:17 49.04488 6.78282 11334 ft 329 kts 219°
2026-04-25 18:17 49.02575 6.76218 11764 ft 344 kts 210°
2026-04-25 18:17 49.00297 6.75016 12435 ft 352 kts 189°
2026-04-25 18:18 48.97836 6.74764 13173 ft 356 kts 184°
2026-04-25 18:18 48.95385 6.74609 13897 ft 359 kts 184°
2026-04-25 18:18 48.92876 6.74465 14522 ft 363 kts 184°
2026-04-25 18:18 48.90338 6.74323 15124 ft 367 kts 184°
2026-04-25 18:19 48.87771 6.74179 15708 ft 372 kts 184°
2026-04-25 18:19 48.85174 6.74029 16285 ft 376 kts 184°
2026-04-25 18:19 48.82540 6.73876 16862 ft 381 kts 184°
2026-04-25 18:19 48.79879 6.73717 17429 ft 385 kts 185°
2026-04-25 18:20 48.77184 6.73555 17994 ft 390 kts 185°
2026-04-25 18:20 48.74458 6.73388 18526 ft 395 kts 185°
2026-04-25 18:20 48.71736 6.73220 19014 ft 399 kts 185°
2026-04-25 18:20 48.68951 6.73050 19518 ft 402 kts 185°
2026-04-25 18:21 48.66145 6.72881 20028 ft 406 kts 185°
2026-04-25 18:21 48.63308 6.72713 20546 ft 409 kts 185°
2026-04-25 18:21 48.60453 6.72545 21063 ft 412 kts 185°
2026-04-25 18:21 48.57574 6.72377 21583 ft 416 kts 185°
2026-04-25 18:22 48.54675 6.72207 22097 ft 419 kts 185°
2026-04-25 18:22 48.52742 6.72093 22442 ft 421 kts 185°
2026-04-25 18:22 48.48808 6.71856 23116 ft 425 kts 185°
2026-04-25 18:22 48.45847 6.71678 23602 ft 428 kts 184°
2026-04-25 18:23 48.42900 6.71505 24012 ft 431 kts 185°
2026-04-25 18:23 48.39898 6.71330 24418 ft 433 kts 184°
2026-04-25 18:23 48.36878 6.71152 24832 ft 435 kts 185°
2026-04-25 18:23 48.33848 6.70975 25239 ft 437 kts 184°
2026-04-25 18:24 48.30806 6.70797 25635 ft 438 kts 185°
2026-04-25 18:24 48.27753 6.70617 26025 ft 440 kts 185°
2026-04-25 18:24 48.24687 6.70441 26407 ft 442 kts 185°
2026-04-25 18:24 48.21608 6.70262 26784 ft 443 kts 185°
2026-04-25 18:25 48.18558 6.70086 27145 ft 445 kts 185°
2026-04-25 18:25 48.15461 6.69906 27504 ft 447 kts 185°
2026-04-25 18:25 48.12345 6.69722 27863 ft 449 kts 185°
2026-04-25 18:25 48.09221 6.69539 28222 ft 450 kts 185°
2026-04-25 18:26 48.06081 6.69357 28564 ft 452 kts 185°
2026-04-25 18:26 48.02933 6.69172 28903 ft 454 kts 185°
2026-04-25 18:26 47.99774 6.68987 29232 ft 455 kts 185°
2026-04-25 18:26 47.96603 6.68805 29556 ft 457 kts 185°
2026-04-25 18:27 47.93421 6.68621 29865 ft 459 kts 185°
2026-04-25 18:27 47.90269 6.68437 30154 ft 460 kts 185°
2026-04-25 18:27 47.87067 6.68248 30407 ft 462 kts 185°
2026-04-25 18:27 47.83852 6.68058 30648 ft 463 kts 185°
2026-04-25 18:28 47.80626 6.67868 30881 ft 464 kts 185°
2026-04-25 18:28 47.77398 6.67682 31100 ft 465 kts 185°
2026-04-25 18:28 47.74156 6.67501 31361 ft 465 kts 185°
2026-04-25 18:29 47.67706 6.67146 32028 ft 463 kts 185°
2026-04-25 18:29 47.64538 6.66968 32340 ft 461 kts 185°
2026-04-25 18:30 47.54946 6.66411 33267 ft 459 kts 185°
2026-04-25 18:30 47.51762 6.66230 33580 ft 458 kts 185°
2026-04-25 18:30 47.48580 6.66050 33886 ft 457 kts 185°
2026-04-25 18:30 47.45410 6.65832 34173 ft 455 kts 188°
2026-04-25 18:31 47.42307 6.65059 34428 ft 451 kts 198°
2026-04-25 18:31 47.39360 6.63569 34687 ft 446 kts 207°
2026-04-25 18:31 47.36674 6.61449 34921 ft 442 kts 216°
2026-04-25 18:31 47.34233 6.58732 35157 ft 438 kts 224°
2026-04-25 18:32 47.31920 6.55810 35380 ft 438 kts 223°
2026-04-25 18:32 47.29589 6.52922 35621 ft 438 kts 219°
2026-04-25 18:32 47.26945 6.50673 35853 ft 443 kts 204°
2026-04-25 18:32 47.23973 6.49419 36049 ft 446 kts 196°
2026-04-25 18:33 47.20947 6.48389 36247 ft 446 kts 195°
2026-04-25 18:33 47.17923 6.47387 36452 ft 445 kts 195°
2026-04-25 18:33 47.14901 6.46399 36652 ft 445 kts 195°
2026-04-25 18:33 47.11882 6.45412 36845 ft 444 kts 195°
2026-04-25 18:34 47.08865 6.44421 37046 ft 444 kts 195°
2026-04-25 18:34 47.05898 6.43440 37128 ft 443 kts 195°
2026-04-25 18:34 46.99898 6.41450 37133 ft 441 kts 195°
2026-04-25 18:35 46.93914 6.39463 37131 ft 441 kts 195°
2026-04-25 18:35 46.87933 6.37489 37123 ft 441 kts 195°
2026-04-25 18:36 46.81953 6.35514 37121 ft 441 kts 195°
2026-04-25 18:36 46.76007 6.33566 37117 ft 441 kts 195°
2026-04-25 18:37 46.70025 6.31611 37118 ft 441 kts 195°
2026-04-25 18:37 46.64035 6.29656 37114 ft 441 kts 195°
2026-04-25 18:38 46.58047 6.27709 37112 ft 441 kts 195°
2026-04-25 18:38 46.52061 6.25757 37109 ft 441 kts 195°
2026-04-25 18:39 46.46076 6.23817 37099 ft 440 kts 195°
2026-04-25 18:39 46.40135 6.21893 37095 ft 440 kts 195°
2026-04-25 18:40 46.34156 6.19951 37094 ft 440 kts 195°
2026-04-25 18:40 46.28178 6.18017 37092 ft 440 kts 195°
2026-04-25 18:41 46.22203 6.16091 37095 ft 440 kts 195°
2026-04-25 18:41 46.16265 6.14182 37095 ft 440 kts 195°
2026-04-25 18:42 46.11305 6.12592 37095 ft 439 kts 195°
2026-04-25 18:42 46.04327 6.10371 37093 ft 439 kts 195°
2026-04-25 18:43 45.98366 6.08477 37090 ft 439 kts 195°
2026-04-25 18:43 45.92450 6.06591 37087 ft 438 kts 195°
2026-04-25 18:44 45.86496 6.04698 37083 ft 438 kts 195°
2026-04-25 18:44 45.80501 6.03070 37083 ft 439 kts 191°
2026-04-25 18:45 45.74448 6.01833 37058 ft 439 kts 190°
2026-04-25 18:45 45.68434 6.00634 37050 ft 439 kts 191°
2026-04-25 18:46 45.62402 5.99326 37047 ft 439 kts 191°
2026-04-25 18:46 45.56369 5.97979 37051 ft 439 kts 191°
2026-04-25 18:47 45.50343 5.96644 37055 ft 439 kts 191°
2026-04-25 18:47 45.44324 5.95183 37062 ft 438 kts 194°
2026-04-25 18:48 45.38381 5.93293 37067 ft 437 kts 195°
2026-04-25 18:48 45.32502 5.91316 37074 ft 437 kts 195°
2026-04-25 18:49 45.26557 5.89418 37087 ft 438 kts 194°
2026-04-25 18:49 45.20669 5.87304 37090 ft 434 kts 205°
2026-04-25 18:50 45.15115 5.83931 37098 ft 434 kts 205°
2026-04-25 18:50 45.09561 5.80541 37101 ft 435 kts 205°
2026-04-25 18:51 45.04945 5.77731 37105 ft 434 kts 205°
2026-04-25 18:51 44.98497 5.73804 37102 ft 434 kts 205°
2026-04-25 18:52 44.92945 5.70426 37109 ft 434 kts 205°
2026-04-25 18:52 44.87389 5.67055 37107 ft 434 kts 205°
2026-04-25 18:53 44.81833 5.63708 37105 ft 434 kts 205°
2026-04-25 18:53 44.76273 5.60364 37105 ft 434 kts 205°
2026-04-25 18:54 44.67946 5.55363 37086 ft 433 kts 205°
2026-04-25 18:55 44.62435 5.52058 37093 ft 433 kts 205°
2026-04-25 18:55 44.56889 5.48735 37077 ft 433 kts 205°
2026-04-25 18:56 44.51341 5.45417 37086 ft 434 kts 205°
2026-04-25 18:56 44.45787 5.42115 37068 ft 434 kts 205°
2026-04-25 18:57 44.40240 5.38813 37075 ft 433 kts 205°
2026-04-25 18:57 44.34691 5.35511 37067 ft 433 kts 205°
2026-04-25 18:58 44.29181 5.32254 37068 ft 433 kts 205°
2026-04-25 18:58 44.20847 5.27344 37059 ft 434 kts 205°
2026-04-25 18:59 44.09767 5.20809 37053 ft 434 kts 205°
2026-04-25 19:00 44.01410 5.15915 37068 ft 435 kts 205°
2026-04-25 19:01 43.93052 5.11035 37066 ft 434 kts 205°
2026-04-25 19:01 43.87484 5.07782 37065 ft 434 kts 205°
2026-04-25 19:02 43.79130 5.02917 37064 ft 434 kts 205°
2026-04-25 19:03 43.72651 4.99162 37085 ft 434 kts 205°
2026-04-25 19:03 43.65230 4.94876 37079 ft 434 kts 205°
2026-04-25 19:04 43.56867 4.90044 37080 ft 434 kts 205°
2026-04-25 19:05 43.45755 4.83649 37082 ft 434 kts 205°
2026-04-25 19:06 43.40175 4.80445 37080 ft 434 kts 205°
2026-04-25 19:06 43.31802 4.75663 37083 ft 434 kts 205°
2026-04-25 19:07 43.23467 4.70923 37080 ft 434 kts 205°
2026-04-25 19:08 43.15092 4.66155 37083 ft 434 kts 205°
2026-04-25 19:09 43.04870 4.60369 37088 ft 434 kts 205°
2026-04-25 19:10 42.95582 4.55114 37086 ft 434 kts 205°
2026-04-25 19:10 42.89998 4.51965 37106 ft 433 kts 205°
2026-04-25 19:11 42.84442 4.48836 37111 ft 431 kts 204°
2026-04-25 19:11 42.78900 4.45727 37114 ft 430 kts 204°
2026-04-25 19:12 42.73377 4.42636 37109 ft 429 kts 204°
2026-04-25 19:12 42.67854 4.39561 37108 ft 429 kts 204°
2026-04-25 19:13 42.62378 4.36507 37110 ft 428 kts 204°
2026-04-25 19:13 42.56865 4.33433 37109 ft 428 kts 204°
2026-04-25 19:14 42.51353 4.30379 37109 ft 428 kts 204°
2026-04-25 19:14 42.45840 4.27330 37111 ft 428 kts 204°
2026-04-25 19:15 42.40328 4.24281 37111 ft 428 kts 204°
2026-04-25 19:15 42.34854 4.21244 37111 ft 428 kts 204°
2026-04-25 19:16 42.29338 4.18197 37109 ft 428 kts 204°
2026-04-25 19:16 42.23816 4.15158 37108 ft 429 kts 204°
2026-04-25 19:17 42.18294 4.12125 37114 ft 429 kts 204°
2026-04-25 19:17 42.13041 4.08476 37110 ft 427 kts 210°
2026-04-25 19:18 42.07817 4.04650 37114 ft 428 kts 210°
2026-04-25 19:18 42.02591 4.00823 37118 ft 428 kts 210°
2026-04-25 19:19 41.97365 3.96995 37121 ft 428 kts 210°
2026-04-25 19:19 41.91994 3.93545 37122 ft 430 kts 199°
2026-04-25 19:20 41.86164 3.91948 37123 ft 432 kts 191°
2026-04-25 19:20 41.80241 3.90578 37122 ft 432 kts 192°
2026-04-25 19:21 41.74320 3.89187 37131 ft 432 kts 191°
2026-04-25 19:21 41.65424 3.87121 37134 ft 432 kts 191°
2026-04-25 19:22 41.59494 3.85757 37133 ft 433 kts 191°
2026-04-25 19:23 41.50636 3.83738 37140 ft 433 kts 191°
2026-04-25 19:23 41.41735 3.81696 37142 ft 433 kts 191°
2026-04-25 19:24 41.35801 3.80342 37141 ft 433 kts 191°
2026-04-25 19:25 41.23944 3.77640 36548 ft 434 kts 191°
2026-04-25 19:25 41.20963 3.76966 36187 ft 436 kts 191°
2026-04-25 19:25 41.17953 3.76285 35452 ft 439 kts 191°
2026-04-25 19:26 41.14972 3.75420 34827 ft 438 kts 198°
2026-04-25 19:26 41.12132 3.74043 34327 ft 434 kts 202°
2026-04-25 19:26 41.09311 3.72581 33434 ft 438 kts 202°
2026-04-25 19:26 41.06452 3.71108 32544 ft 443 kts 201°
2026-04-25 19:27 41.03595 3.69635 31995 ft 438 kts 201°
2026-04-25 19:27 41.02675 3.69161 31834 ft 437 kts 201°
2026-04-25 19:27 40.98003 3.66756 31003 ft 430 kts 201°
2026-04-25 19:27 40.95223 3.65330 30516 ft 426 kts 201°
2026-04-25 19:28 40.92478 3.63925 30073 ft 422 kts 201°
2026-04-25 19:28 40.89732 3.62519 29325 ft 423 kts 201°
2026-04-25 19:28 40.86995 3.61118 28721 ft 421 kts 201°
2026-04-25 19:28 40.84274 3.59727 28159 ft 418 kts 201°
2026-04-25 19:29 40.81570 3.58345 27621 ft 415 kts 201°
2026-04-25 19:29 40.78885 3.56974 27098 ft 412 kts 201°
2026-04-25 19:29 40.76223 3.55616 26587 ft 409 kts 201°
2026-04-25 19:29 40.73575 3.54266 26093 ft 407 kts 201°
2026-04-25 19:30 40.70979 3.52941 25613 ft 404 kts 201°
2026-04-25 19:30 40.68362 3.51606 25137 ft 402 kts 200°
2026-04-25 19:30 40.65761 3.50283 24675 ft 400 kts 200°
2026-04-25 19:30 40.63174 3.48970 24202 ft 398 kts 200°
2026-04-25 19:31 40.60599 3.47662 23741 ft 396 kts 200°
2026-04-25 19:31 40.58038 3.46363 23203 ft 393 kts 200°
2026-04-25 19:31 40.55493 3.45072 22745 ft 390 kts 200°
2026-04-25 19:31 40.52973 3.43794 22285 ft 387 kts 200°
2026-04-25 19:32 40.50471 3.42524 21833 ft 384 kts 200°
2026-04-25 19:32 40.47992 3.41268 21400 ft 380 kts 200°
2026-04-25 19:32 40.45558 3.40084 20967 ft 376 kts 195°
2026-04-25 19:32 40.44705 3.39784 20829 ft 375 kts 191°
2026-04-25 19:33 40.40442 3.39433 20119 ft 367 kts 176°
2026-04-25 19:33 40.37900 3.39582 19696 ft 365 kts 176°
2026-04-25 19:33 40.35375 3.39724 19294 ft 362 kts 176°
2026-04-25 19:33 40.32869 3.39865 18899 ft 359 kts 176°
2026-04-25 19:34 40.30384 3.40005 18510 ft 356 kts 176°
2026-04-25 19:34 40.27916 3.40144 18080 ft 353 kts 176°
2026-04-25 19:34 40.25467 3.40282 17631 ft 351 kts 176°
2026-04-25 19:34 40.23033 3.40421 17186 ft 349 kts 176°
2026-04-25 19:35 40.20657 3.40556 16909 ft 343 kts 176°
2026-04-25 19:35 40.18282 3.40690 16584 ft 339 kts 175°
2026-04-25 19:35 40.15965 3.40818 16449 ft 329 kts 175°
2026-04-25 19:35 40.13704 3.40942 16242 ft 323 kts 175°
2026-04-25 19:36 40.11493 3.41064 16132 ft 313 kts 175°
2026-04-25 19:36 40.09365 3.41181 16147 ft 299 kts 175°
2026-04-25 19:36 40.07334 3.41295 16144 ft 286 kts 175°
2026-04-25 19:36 40.05385 3.41406 16145 ft 276 kts 175°
2026-04-25 19:37 40.03472 3.41516 16150 ft 274 kts 175°
2026-04-25 19:37 40.01571 3.41627 16146 ft 273 kts 175°
2026-04-25 19:37 39.99670 3.41742 15952 ft 276 kts 175°
2026-04-25 19:37 39.97731 3.41861 15327 ft 289 kts 175°
2026-04-25 19:38 39.95671 3.41983 14640 ft 304 kts 175°
2026-04-25 19:38 39.93521 3.42105 14097 ft 312 kts 175°
2026-04-25 19:38 39.91358 3.42223 13751 ft 310 kts 175°
2026-04-25 19:38 39.89207 3.42338 13396 ft 309 kts 175°
2026-04-25 19:39 39.87067 3.42453 13044 ft 307 kts 175°
2026-04-25 19:39 39.84942 3.42567 12699 ft 305 kts 175°
2026-04-25 19:39 39.82833 3.42684 12297 ft 301 kts 175°
2026-04-25 19:39 39.80780 3.42799 11663 ft 298 kts 176°
2026-04-25 19:40 39.78716 3.42916 11062 ft 296 kts 176°
2026-04-25 19:40 39.76669 3.43020 10457 ft 293 kts 179°
2026-04-25 19:40 39.74691 3.42514 9844 ft 291 kts 203°
2026-04-25 19:40 39.73028 3.41043 9246 ft 291 kts 226°
2026-04-25 19:41 39.71934 3.38841 8826 ft 293 kts 249°
2026-04-25 19:41 39.71434 3.36284 8416 ft 292 kts 258°
2026-04-25 19:41 39.71017 3.33709 8011 ft 291 kts 258°
2026-04-25 19:41 39.70877 3.32840 7872 ft 291 kts 258°
2026-04-25 19:42 39.70187 3.28577 7181 ft 290 kts 258°
2026-04-25 19:42 39.69777 3.26055 6754 ft 288 kts 258°
2026-04-25 19:42 39.69367 3.23542 6325 ft 284 kts 258°
2026-04-25 19:42 39.68959 3.21038 5953 ft 281 kts 258°
2026-04-25 19:43 39.68568 3.18651 5821 ft 259 kts 258°
2026-04-25 19:43 39.68200 3.16417 5597 ft 248 kts 258°
2026-04-25 19:43 39.67845 3.14253 5110 ft 245 kts 257°
2026-04-25 19:43 39.67489 3.12093 4769 ft 244 kts 257°
2026-04-25 19:44 39.67139 3.09967 4434 ft 242 kts 258°
2026-04-25 19:44 39.66787 3.07836 4100 ft 241 kts 258°
2026-04-25 19:44 39.66439 3.05716 3800 ft 238 kts 258°
2026-04-25 19:44 39.66097 3.03653 3663 ft 229 kts 258°
2026-04-25 19:45 39.65769 3.01672 3539 ft 220 kts 258°
2026-04-25 19:45 39.65454 2.99775 3437 ft 209 kts 258°
2026-04-25 19:45 39.65151 2.97955 3143 ft 205 kts 258°
2026-04-25 19:45 39.64841 2.96187 3011 ft 203 kts 253°
2026-04-25 19:46 39.64206 2.94547 3011 ft 204 kts 239°
2026-04-25 19:46 39.63463 2.92977 2938 ft 205 kts 238°
2026-04-25 19:46 39.62720 2.91407 2718 ft 203 kts 239°
2026-04-25 19:46 39.61988 2.89852 2455 ft 200 kts 239°
2026-04-25 19:47 39.61271 2.88330 2185 ft 194 kts 239°
2026-04-25 19:47 39.60588 2.86878 1936 ft 184 kts 238°
2026-04-25 19:47 39.59936 2.85493 1701 ft 178 kts 238°
2026-04-25 19:47 39.59323 2.84191 1463 ft 160 kts 238°
2026-04-25 19:48 39.58768 2.83012 1263 ft 148 kts 238°
2026-04-25 19:48 39.58243 2.81898 1060 ft 142 kts 238°
2026-04-25 19:48 39.57732 2.80814 871 ft 140 kts 238°
2026-04-25 19:48 39.57236 2.79764 685 ft 138 kts 238°
2026-04-25 19:49 39.56739 2.78710 509 ft 137 kts 238°
2026-04-25 19:49 39.56572 2.78356 450 ft 137 kts 237°
2026-04-25 19:49 39.55751 2.76617 154 ft 136 kts 237°
2026-04-25 19:49 39.55298 2.75674 39 ft 127 kts 238°
2026-04-25 19:50 39.54824 2.74561 38 ft 41 kts 258°
2026-04-25 19:50 39.54803 2.74289 38 ft 18 kts 269°
2026-04-25 19:50 39.54803 2.74232 38 ft 2 kts 270°
2026-04-25 19:51 39.54803 2.74228 38 ft 0 kts 270°
2026-04-25 19:51 39.54803 2.74219 38 ft 6 kts 270°
2026-04-25 19:51 39.54846 2.74111 38 ft 19 kts 321°
2026-04-25 19:52 39.54966 2.74015 38 ft 21 kts 329°
2026-04-25 19:52 39.55098 2.73912 38 ft 23 kts 329°
2026-04-25 19:52 39.55183 2.73822 36 ft 9 kts 266°
2026-04-25 19:52 39.55167 2.73763 38 ft 6 kts 290°
2026-04-25 19:53 39.55174 2.73687 38 ft 9 kts 247°
2026-04-25 19:53 39.55143 2.73626 38 ft 7 kts 238°
2026-04-25 19:53 39.55117 2.73575 38 ft 6 kts 227°
2026-04-25 19:53 39.55085 2.73573 38 ft 4 kts 170°
2026-04-25 19:54 39.55066 2.73580 35 ft 0 kts 164°